#timestamp,LO_Frequency,Hit,StdDev 
1684407615.3,286046991.1,N
1684407635.1,286046991.0,N
1684407655.9,286046988.3,N
1684407675.7,286046984.1,Y
1684407695.5,286046997.3,P
1684407715.4,286047000.5,N
1684407735.2,286047008.7,N
1684407755.0,286047013.6,N
1684407755.9,286047013.6,N
1684407775.8,286047014.6,N
1684407795.6,286047010.1,N
1684407815.5,286047010.8,N
1684407835.3,286047010.6,N
1684407855.2,286047013.8,N
1684407875.9,286047016.4,N
1684407895.7,286047020.5,N
1684407915.6,286047025.9,Y
1684407935.4,286047018.6,P
1684407955.2,286047019.1,P
1684407975.1,286047023.6,P
1684407976.0,286047023.6,Y
1684407995.8,286047001.6,P
1684408015.7,286046995.2,N
1684408035.5,286046988.8,N
1684408055.3,286046985.9,N
1684408075.2,286046981.1,N
1684408095.0,286046979.0,N
1684408095.9,286046979.0,N
1684408115.7,286046987.7,N
1684408135.6,286046987.2,N
1684408155.4,286046991.1,N
1684408175.3,286046991.7,N
1684408195.1,286046993.7,N
1684408196.0,286046993.7,N
1684408215.8,286046998.5,N
1684408235.7,286047000.7,N
1684408255.5,286046993.8,N
1684408275.3,286046990.0,N
1684408295.2,286046991.2,N
1684408315.0,286046990.2,N
1684408315.9,286046990.2,N
1684408335.8,286046990.0,N
1684408355.6,286046988.3,N
1684408375.4,286046977.8,N
1684408395.3,286046973.2,Y
1684408415.1,286046977.3,P
1684408435.8,286046973.4,P
1684408455.7,286046975.4,P
1684408475.5,286046970.3,Y
1684408495.4,286046987.0,P
1684408515.2,286046987.8,P
1684408535.0,286046985.1,P
1684408535.9,286046985.1,Y
1684408555.8,286046999.0,P
1684408575.6,286046995.2,N
1684408595.5,286046998.5,N
1684408615.3,286047006.6,N
1684408635.1,286047007.5,N
1684408655.9,286047001.1,N
1684408675.7,286046998.0,N
1684408695.5,286046994.5,N
1684408715.4,286046989.2,N
1684408735.2,286046991.0,N
1684408755.1,286046991.0,N
1684408756.0,286046991.0,N
1684408775.8,286046990.0,N
1684408795.7,286046988.2,N
1684408815.5,286046985.9,N
1684408835.3,286046982.6,N
1684408855.2,286046982.4,N
1684408875.0,286046982.5,N
1684408875.9,286046982.5,N
1684408895.8,286046981.1,N
1684408915.6,286046980.2,N
1684408935.4,286046982.9,N
1684408955.3,286046987.5,N
1684408975.1,286046989.3,N
1684408995.9,286046987.3,N
1684409015.7,286046985.4,N
1684409035.5,286046989.4,N
1684409055.4,286046988.4,N
1684409075.2,286046984.5,N
1684409095.1,286046996.9,N
1684409096.0,286046996.9,N
1684409115.8,286047000.9,N
1684409135.6,286047026.7,Y
1684409155.5,286047031.4,P
1684409175.3,286047017.6,N
1684409225.2,286046999.0,E
1684409235.1,286046995.9,N
1684409255.9,286046992.3,P
1684409275.7,286046990.6,P
1684409295.5,286046990.8,Y
1684409315.4,286046998.7,P
1684409335.2,286046996.2,N
1684409355.0,286046996.2,N
1684409356.0,286046996.2,N
1684409375.8,286046990.1,Y
1684409395.6,286046992.6,P
1684409415.5,286046990.7,P
1684409435.3,286046990.0,P
1684409455.1,286046991.0,Y
1684409475.9,286047008.0,P
1684409495.7,286047009.8,N
1684409515.6,286047009.3,N
1684409535.4,286047012.6,N
1684409555.2,286047014.0,N
1684409575.1,286047013.7,N
1684409576.0,286047013.7,N
1684409595.8,286047008.1,N
1684409615.7,286047006.4,N
1684409635.5,286047004.1,N
1684409655.3,286047000.3,N
1684409675.2,286047000.5,N
1684409695.9,286046999.8,N
1684409715.7,286047001.2,N
1684409735.6,286046999.0,N
1684409755.4,286046999.5,N
1684409775.2,286046995.4,N
1684409795.1,286046993.4,N
1684409796.0,286046993.4,N
1684409815.8,286046997.9,N
1684409835.7,286046998.4,N
1684409855.5,286046999.7,N
1684409875.3,286047009.1,N
1684409895.2,286047011.6,N
1684409915.0,286047009.8,N
1684409915.9,286047009.8,N
1684409935.7,286047009.6,N
1684409955.6,286047008.4,N
1684409975.4,286047002.7,N
1684409995.3,286046997.8,N
1684410015.1,286046994.8,N
1684410016.0,286046994.8,N
1684410035.8,286046989.1,N
1684410055.7,286046984.4,N
1684410075.5,286046983.2,N
1684410095.3,286046984.1,N
1684410115.2,286046989.4,N
1684410135.0,286046992.1,N
1684410135.9,286046992.1,N
1684410155.8,286046998.3,N
1684410175.6,286046997.0,N
1684410195.4,286046998.1,N
1684410215.3,286047000.6,N
1684410235.1,286046998.2,N
1684410255.8,286046996.7,N
1684410275.7,286046998.5,N
1684410295.5,286046995.6,N
1684410315.4,286046996.9,N
1684410335.2,286046995.3,N
1684410355.0,286046995.9,N
1684410355.9,286046995.9,N
1684410375.8,286046992.3,N
1684410395.6,286046989.2,N
1684410415.4,286046993.9,N
1684410435.3,286046994.4,N
1684410455.1,286046994.1,N
1684410475.9,286046998.9,N
1684410495.7,286047001.4,N
1684410515.5,286047005.2,N
1684410535.4,286047001.0,N
1684410555.2,286046991.7,N
1684410575.0,286046988.8,N
1684410575.9,286046988.8,N
1684410595.8,286046988.4,N
1684410615.6,286046978.9,Y
1684410635.5,286046982.2,P
1684410655.3,286046982.7,N
1684410675.1,286046980.9,P
1684410695.9,286046982.5,Y
1684410715.7,286046995.0,P
1684410735.6,286047021.3,P
1684410755.4,286047031.2,N
1684410775.2,286047048.3,N
1684410795.1,286047061.3,N
1684410796.0,286047061.3,N
1684410815.8,286047068.1,N
1684410835.6,286047057.7,N
1684410855.5,286047053.1,N
1684410875.3,286047044.8,N
1684410895.2,286047039.6,N
1684410915.9,286047029.3,N
1684410935.7,286047029.8,N
1684410955.6,286047034.6,N
1684410975.4,286047036.4,N
1684410995.2,286047037.4,N
1684411015.1,286047042.2,N
1684411016.0,286047042.2,N
1684411035.8,286047041.4,N
1684411055.7,286047052.7,N
1684411075.5,286047054.7,N
1684411095.3,286047059.5,Y
1684411115.2,286047024.4,P
1684411135.0,286047023.8,P
1684411135.9,286047023.8,P
1684411155.8,286047020.8,Y
1684411175.6,286047008.2,P
1684411195.4,286047000.3,N
